TimeCST,TemperatureF,Dew PointF,Humidity,Sea Level PressureIn,VisibilityMPH,Wind Direction,Wind SpeedMPH,Gust SpeedMPH,PrecipitationIn,Events,Conditions,WindDirDegrees,DateUTC
12:53 AM,41.0,21.0,45,29.92,10.0,SE,16.1,23.0,N/A,,Overcast,140,2013-02-20 06:53:00
1:53 AM,39.0,27.0,62,29.92,9.0,South,20.7,38.0,N/A,,Overcast,170,2013-02-20 07:53:00
2:10 AM,35.6,30.2,81,29.95,5.0,SSE,16.1,24.2,0.00,Snow,Light Snow,160,2013-02-20 08:10:00
2:36 AM,35.6,30.2,81,29.93,8.0,SSE,16.1,24.2,0.01,Snow,Light Snow,150,2013-02-20 08:36:00
2:53 AM,34.0,30.0,85,29.91,3.0,SSE,13.8,-,0.01,Snow,Light Snow,150,2013-02-20 08:53:00
3:04 AM,33.8,30.2,87,29.92,2.5,SE,12.7,-,0.01,Snow,Light Snow,140,2013-02-20 09:04:00
3:19 AM,35.6,30.2,81,29.92,5.0,SE,11.5,-,0.01,Snow,Light Snow,140,2013-02-20 09:19:00
3:53 AM,34.0,30.9,89,29.88,8.0,SE,9.2,-,0.02,Snow,Light Snow,130,2013-02-20 09:53:00
4:53 AM,34.0,32.0,92,29.87,7.0,East,8.1,-,0.01,,Overcast,90,2013-02-20 10:53:00
5:06 AM,33.8,32.0,93,29.88,6.0,East,8.1,-,0.00,,Overcast,90,2013-02-20 11:06:00
5:53 AM,37.0,35.1,93,29.85,10.0,SE,16.1,21.9,0.00,,Overcast,140,2013-02-20 11:53:00
6:53 AM,37.0,35.1,93,29.85,10.0,SSE,16.1,25.3,N/A,,Overcast,150,2013-02-20 12:53:00
7:53 AM,37.9,36.0,93,29.86,10.0,SSE,16.1,-,0.02,Rain,Light Rain,150,2013-02-20 13:53:00
8:43 AM,37.4,35.6,93,29.86,10.0,SSE,19.6,26.5,0.00,,Overcast,160,2013-02-20 14:43:00
8:53 AM,37.9,36.0,93,29.86,6.0,SSE,19.6,28.8,0.00,,Overcast,160,2013-02-20 14:53:00
9:53 AM,37.9,36.0,93,29.86,7.0,South,19.6,28.8,0.00,Rain,Light Rain,170,2013-02-20 15:53:00
10:53 AM,37.9,36.0,93,29.86,10.0,SSE,19.6,27.6,0.00,,Overcast,160,2013-02-20 16:53:00
11:03 AM,39.2,37.4,93,29.85,6.0,SSE,19.6,29.9,0.00,Rain,Light Rain,160,2013-02-20 17:03:00
11:53 AM,39.0,37.0,93,29.85,5.0,SSE,18.4,29.9,0.01,Rain,Light Rain,160,2013-02-20 17:53:00
12:53 PM,37.9,37.0,97,29.82,2.0,SSE,20.7,28.8,0.01,Snow,Light Snow,160,2013-02-20 18:53:00
1:05 PM,37.4,37.4,100,29.82,6.0,SSE,20.7,31.1,0.00,Rain,Light Rain,160,2013-02-20 19:05:00
1:34 PM,37.4,37.4,100,29.80,8.0,SSE,19.6,25.3,0.00,Rain-Thunderstorm,Light Rain,160,2013-02-20 19:34:00
1:49 PM,37.4,35.6,93,29.79,4.0,SSE,19.6,27.6,0.02,Rain,Light Rain,150,2013-02-20 19:49:00
2:35 PM,37.4,35.6,93,29.78,10.0,SSE,17.3,25.3,0.06,,Overcast,160,2013-02-20 20:35:00
2:51 PM,37.4,35.6,93,29.77,10.0,SSE,17.3,26.5,0.06,,Overcast,150,2013-02-20 20:51:00
3:53 PM,36.0,34.0,93,29.76,4.0,SSE,13.8,23.0,0.01,,Overcast,150,2013-02-20 21:53:00
4:53 PM,36.0,34.0,93,29.75,5.0,SSE,16.1,25.3,N/A,,Overcast,150,2013-02-20 22:53:00
5:53 PM,35.1,33.1,92,29.74,4.0,SE,20.7,29.9,0.01,,Overcast,140,2013-02-20 23:53:00
6:53 PM,34.0,34.0,100,29.74,7.0,SSE,23.0,27.6,0.00,,Overcast,150,2013-02-21 00:53:00
7:53 PM,34.0,33.1,96,29.74,10.0,SE,17.3,26.5,N/A,,Overcast,130,2013-02-21 01:53:00
8:53 PM,33.1,32.0,96,29.76,8.0,SE,18.4,21.9,0.00,Snow,Light Snow,130,2013-02-21 02:53:00
9:53 PM,33.1,32.0,96,29.77,6.0,SE,15.0,23.0,0.00,,Overcast,140,2013-02-21 03:53:00
10:53 PM,33.1,32.0,96,29.78,7.0,SE,11.5,-,N/A,,Overcast,130,2013-02-21 04:53:00
11:28 PM,32.0,30.2,93,29.75,2.0,SE,16.1,23.0,0.00,Snow,Light Snow,130,2013-02-21 05:28:00
11:50 PM,32.0,32.0,100,29.72,3.0,East,13.8,-,0.00,Snow,Light Snow,100,2013-02-21 05:50:00
11:53 PM,32.0,30.9,96,29.72,4.0,ESE,16.1,21.9,0.00,Snow,Light Snow,110,2013-02-21 05:53:00